Time,TemperatureF,DewpointF,PressureIn,WindDirection,WindDirectionDegrees,WindSpeedMPH,WindSpeedGustMPH,Humidity,HourlyPrecipIn,Conditions,Clouds,dailyrainin,SoftwareType,DateUTC
2013-07-04 00:01:00,65.1,57.4,30.00,SW,234,0.0,1.0,76,0.00,,,0.00,meteohub,2013-07-04 05:01:00,
2013-07-04 00:06:00,64.8,57.0,30.00,SW,234,0.0,1.0,76,0.00,,,0.00,meteohub,2013-07-04 05:06:00,
2013-07-04 00:11:00,64.4,57.0,30.01,SW,234,0.0,1.0,77,0.00,,,0.00,meteohub,2013-07-04 05:11:00,
2013-07-04 00:16:00,64.0,57.0,30.01,SW,234,0.0,0.0,78,0.00,,,0.00,meteohub,2013-07-04 05:16:00,
2013-07-04 00:21:00,63.7,57.0,30.01,SW,234,0.0,0.0,79,0.00,,,0.00,meteohub,2013-07-04 05:21:00,
2013-07-04 00:26:00,63.3,56.7,30.00,SW,234,0.0,0.0,79,0.00,,,0.00,meteohub,2013-07-04 05:26:00,
2013-07-04 00:31:00,63.1,56.8,30.00,SW,234,0.0,0.0,80,0.00,,,0.00,meteohub,2013-07-04 05:31:00,
2013-07-04 00:36:00,63.0,56.7,30.01,SW,234,0.0,0.0,80,0.00,,,0.00,meteohub,2013-07-04 05:36:00,
2013-07-04 00:41:00,63.0,56.7,30.00,SW,234,0.0,0.0,80,0.00,,,0.00,meteohub,2013-07-04 05:41:00,
2013-07-04 00:46:00,62.8,56.5,30.00,SW,234,0.0,0.0,80,0.00,,,0.00,meteohub,2013-07-04 05:46:00,
2013-07-04 00:51:00,62.4,56.5,30.00,SW,234,0.0,0.0,81,0.00,,,0.00,meteohub,2013-07-04 05:51:00,
2013-07-04 00:56:00,62.2,56.3,30.00,SW,234,0.0,1.0,81,0.00,,,0.00,meteohub,2013-07-04 05:56:00,
2013-07-04 01:01:00,62.1,56.1,30.00,SW,234,0.0,1.0,81,0.00,,,0.00,meteohub,2013-07-04 06:01:00,
2013-07-04 01:06:00,62.1,56.5,30.00,SW,234,0.0,1.0,82,0.00,,,0.00,meteohub,2013-07-04 06:06:00,
2013-07-04 01:11:00,62.2,56.7,30.00,SW,234,0.0,0.0,82,0.00,,,0.00,meteohub,2013-07-04 06:11:00,
2013-07-04 01:16:00,62.6,57.0,30.00,SW,234,0.0,0.0,82,0.00,,,0.00,meteohub,2013-07-04 06:16:00,
2013-07-04 01:21:00,62.8,57.2,30.00,SW,234,0.0,0.0,82,0.00,,,0.00,meteohub,2013-07-04 06:21:00,
2013-07-04 01:26:00,63.0,57.4,30.00,SW,234,0.0,1.0,82,0.00,,,0.00,meteohub,2013-07-04 06:26:00,
2013-07-04 01:31:00,62.8,57.6,30.00,SW,234,0.0,1.0,83,0.00,,,0.00,meteohub,2013-07-04 06:31:00,
2013-07-04 01:36:00,62.8,57.6,30.00,SW,234,0.0,1.0,83,0.00,,,0.00,meteohub,2013-07-04 06:36:00,
2013-07-04 01:41:00,62.4,57.2,29.99,SW,234,0.0,1.0,83,0.00,,,0.00,meteohub,2013-07-04 06:41:00,
2013-07-04 01:46:00,62.2,57.0,29.99,SW,234,0.0,0.0,83,0.00,,,0.00,meteohub,2013-07-04 06:46:00,
2013-07-04 01:51:00,62.1,56.8,29.99,SW,234,0.0,0.0,83,0.00,,,0.00,meteohub,2013-07-04 06:51:00,
2013-07-04 01:56:00,61.9,57.0,29.99,SW,234,0.0,0.0,84,0.00,,,0.00,meteohub,2013-07-04 06:56:00,
2013-07-04 02:01:00,61.5,56.7,29.99,SW,234,0.0,0.0,84,0.00,,,0.00,meteohub,2013-07-04 07:01:00,
2013-07-04 02:06:00,61.5,57.0,29.99,SW,234,0.0,0.0,85,0.00,,,0.00,meteohub,2013-07-04 07:06:00,
2013-07-04 02:11:00,61.5,57.0,29.99,SW,234,0.0,0.0,85,0.00,,,0.00,meteohub,2013-07-04 07:11:00,
2013-07-04 02:16:00,61.3,56.8,29.99,SW,234,0.0,0.0,85,0.00,,,0.00,meteohub,2013-07-04 07:16:00,
2013-07-04 02:21:00,61.2,56.7,29.99,SW,234,0.0,0.0,85,0.00,,,0.00,meteohub,2013-07-04 07:21:00,
2013-07-04 02:26:00,61.2,56.7,29.99,SW,234,0.0,0.0,85,0.00,,,0.00,meteohub,2013-07-04 07:26:00,
2013-07-04 02:31:00,61.2,57.0,29.99,SW,234,0.0,0.0,86,0.00,,,0.00,meteohub,2013-07-04 07:31:00,
2013-07-04 02:36:00,61.0,56.8,29.99,SW,234,0.0,0.0,86,0.00,,,0.00,meteohub,2013-07-04 07:36:00,
2013-07-04 02:41:00,60.6,56.5,29.99,SW,234,0.0,0.0,86,0.00,,,0.00,meteohub,2013-07-04 07:41:00,
2013-07-04 02:46:00,60.6,56.5,29.99,SW,234,0.0,0.0,86,0.00,,,0.00,meteohub,2013-07-04 07:46:00,
2013-07-04 02:51:00,60.4,56.3,29.98,SW,234,0.0,0.0,86,0.00,,,0.00,meteohub,2013-07-04 07:51:00,
2013-07-04 02:56:00,60.3,56.1,29.98,SW,234,0.0,0.0,86,0.00,,,0.00,meteohub,2013-07-04 07:56:00,
2013-07-04 03:01:00,59.9,55.8,29.99,SW,234,0.0,0.0,86,0.00,,,0.00,meteohub,2013-07-04 08:01:00,
2013-07-04 03:06:00,59.5,55.6,29.99,SW,234,0.0,0.0,87,0.00,,,0.00,meteohub,2013-07-04 08:06:00,
2013-07-04 03:11:00,59.5,55.6,29.99,SW,234,0.0,0.0,87,0.00,,,0.00,meteohub,2013-07-04 08:11:00,
2013-07-04 03:16:00,59.9,55.9,29.98,SW,234,0.0,0.0,87,0.00,,,0.00,meteohub,2013-07-04 08:16:00,
2013-07-04 03:21:00,60.1,56.1,29.98,SW,234,0.0,0.0,87,0.00,,,0.00,meteohub,2013-07-04 08:21:00,
2013-07-04 03:26:00,59.9,55.9,29.98,SW,234,0.0,0.0,87,0.00,,,0.00,meteohub,2013-07-04 08:26:00,
2013-07-04 03:31:00,59.5,55.6,29.98,SW,234,0.0,1.0,87,0.00,,,0.00,meteohub,2013-07-04 08:31:00,
2013-07-04 03:36:00,59.5,55.6,29.98,SW,234,0.0,1.0,87,0.00,,,0.00,meteohub,2013-07-04 08:36:00,
2013-07-04 03:41:00,59.5,55.6,29.98,SW,234,0.0,1.0,87,0.00,,,0.00,meteohub,2013-07-04 08:41:00,
2013-07-04 03:46:00,59.7,55.8,29.98,SW,234,0.0,1.0,87,0.00,,,0.00,meteohub,2013-07-04 08:46:00,
2013-07-04 03:51:00,60.1,55.9,29.98,SW,234,0.0,1.0,86,0.00,,,0.00,meteohub,2013-07-04 08:51:00,
2013-07-04 03:56:00,60.3,56.1,29.98,SW,234,0.0,1.0,86,0.00,,,0.00,meteohub,2013-07-04 08:56:00,
2013-07-04 04:01:00,60.3,56.1,29.98,SW,234,0.0,1.0,86,0.00,,,0.00,meteohub,2013-07-04 09:01:00,
2013-07-04 04:06:00,60.3,56.1,29.98,SW,234,0.0,0.0,86,0.00,,,0.00,meteohub,2013-07-04 09:06:00,
2013-07-04 04:07:00,60.3,56.1,29.98,SW,234,0.0,0.0,86,0.00,,,0.00,meteohub,2013-07-04 09:07:00,
2013-07-04 04:11:00,60.3,56.1,29.98,SW,234,0.0,0.0,86,0.00,,,0.00,meteohub,2013-07-04 09:11:00,
2013-07-04 04:16:00,60.3,56.1,29.98,SW,234,0.0,0.0,86,0.00,,,0.00,meteohub,2013-07-04 09:16:00,
2013-07-04 04:21:00,60.1,55.6,29.98,SW,234,0.0,0.0,85,0.00,,,0.00,meteohub,2013-07-04 09:21:00,
2013-07-04 04:26:00,60.1,55.6,29.98,SW,234,0.0,0.0,85,0.00,,,0.00,meteohub,2013-07-04 09:26:00,
2013-07-04 04:31:00,60.1,55.6,29.98,SW,234,0.0,0.0,85,0.00,,,0.00,meteohub,2013-07-04 09:31:00,
2013-07-04 04:36:00,60.1,55.6,29.99,North,-999,-999.0,0.0,85,0.00,,,0.00,meteohub,2013-07-04 09:36:00,
2013-07-04 06:30:00,60.1,56.1,29.99,North,-999,-999.0,-999.0,87,-99.99,,,0.00,meteohub,2013-07-04 11:30:00,
2013-07-04 06:35:00,60.4,56.5,29.99,SW,234,1.0,-999.0,87,0.00,,,0.00,meteohub,2013-07-04 11:35:00,
2013-07-04 06:40:00,61.5,57.6,29.99,SW,234,0.0,2.0,87,0.00,,,0.00,meteohub,2013-07-04 11:40:00,
2013-07-04 06:45:00,62.1,57.7,29.99,SW,234,0.0,2.0,86,0.00,,,0.00,meteohub,2013-07-04 11:45:00,
2013-07-04 06:50:00,62.4,57.9,29.99,SW,234,0.0,2.0,85,0.00,,,0.00,meteohub,2013-07-04 11:50:00,
2013-07-04 06:55:00,63.0,58.1,29.99,SW,234,0.0,1.0,84,0.00,,,0.00,meteohub,2013-07-04 11:55:00,
2013-07-04 07:00:00,63.3,58.5,29.99,SW,234,0.0,1.0,84,0.00,,,0.00,meteohub,2013-07-04 12:00:00,
2013-07-04 07:05:00,63.7,58.8,29.99,SW,234,0.0,1.0,84,0.00,,,0.00,meteohub,2013-07-04 12:05:00,
2013-07-04 07:11:00,64.0,58.8,29.99,SW,234,0.0,1.0,83,0.00,,,0.00,meteohub,2013-07-04 12:11:00,
2013-07-04 07:16:00,64.4,58.8,29.99,SW,234,0.0,1.0,82,0.00,,,0.00,meteohub,2013-07-04 12:16:00,
2013-07-04 07:21:00,64.6,58.6,29.99,SW,234,1.0,1.0,81,0.00,,,0.00,meteohub,2013-07-04 12:21:00,
2013-07-04 07:26:00,64.9,58.6,29.99,SW,234,0.0,2.0,80,0.00,,,0.00,meteohub,2013-07-04 12:26:00,
2013-07-04 07:31:00,65.5,59.2,29.99,SW,234,1.0,7.0,80,0.00,,,0.00,meteohub,2013-07-04 12:31:00,
2013-07-04 07:36:00,66.0,59.4,30.00,SW,234,2.0,7.0,79,0.00,,,0.00,meteohub,2013-07-04 12:36:00,
2013-07-04 07:41:00,66.4,59.7,30.00,SW,234,0.0,7.0,79,0.00,,,0.00,meteohub,2013-07-04 12:41:00,
2013-07-04 07:46:00,66.9,59.9,30.00,SW,234,4.0,7.0,78,0.00,,,0.00,meteohub,2013-07-04 12:46:00,
2013-07-04 07:51:00,67.6,59.7,29.99,SW,234,0.0,7.0,76,0.00,,,0.00,meteohub,2013-07-04 12:51:00,
2013-07-04 07:56:00,68.2,60.3,30.00,SW,234,1.0,7.0,76,0.00,,,0.00,meteohub,2013-07-04 12:56:00,
2013-07-04 08:01:00,68.7,60.4,30.00,SW,234,2.0,6.0,75,0.00,,,0.00,meteohub,2013-07-04 13:01:00,
2013-07-04 08:06:00,69.3,60.3,29.99,SW,234,0.0,5.0,73,0.00,,,0.00,meteohub,2013-07-04 13:06:00,
2013-07-04 08:11:00,69.4,60.1,30.00,SW,234,2.0,6.0,72,0.00,,,0.00,meteohub,2013-07-04 13:11:00,
2013-07-04 08:16:00,69.6,60.3,29.99,SW,235,3.0,7.0,72,0.00,,,0.00,meteohub,2013-07-04 13:16:00,
2013-07-04 08:21:00,69.6,60.3,29.99,SW,236,0.0,7.0,72,0.00,,,0.00,meteohub,2013-07-04 13:21:00,
2013-07-04 08:26:00,70.0,60.1,30.00,WSW,239,3.0,7.0,71,0.00,,,0.00,meteohub,2013-07-04 13:26:00,
2013-07-04 08:31:00,70.5,60.3,29.99,West,273,5.0,9.0,70,0.00,,,0.00,meteohub,2013-07-04 13:31:00,
2013-07-04 08:36:00,71.1,61.2,29.99,West,273,2.0,9.0,71,0.00,,,0.00,meteohub,2013-07-04 13:36:00,
2013-07-04 08:41:00,71.6,60.8,29.99,West,273,1.0,9.0,69,0.00,,,0.00,meteohub,2013-07-04 13:41:00,
2013-07-04 08:46:00,72.1,61.3,29.99,West,273,3.0,6.0,69,0.00,,,0.00,meteohub,2013-07-04 13:46:00,
2013-07-04 08:51:00,72.3,60.8,29.99,WSW,247,4.0,10.0,67,0.00,,,0.00,meteohub,2013-07-04 13:51:00,
2013-07-04 08:56:00,72.5,61.0,29.99,WSW,252,4.0,10.0,67,0.00,,,0.00,meteohub,2013-07-04 13:56:00,
2013-07-04 09:01:00,72.9,61.3,29.99,WSW,252,7.0,10.0,67,0.00,,,0.00,meteohub,2013-07-04 14:01:00,
2013-07-04 09:06:00,72.7,60.3,29.99,West,275,5.0,10.0,65,0.00,,,0.00,meteohub,2013-07-04 14:06:00,
2013-07-04 09:11:00,73.2,60.8,29.99,WNW,291,5.0,10.0,65,0.00,,,0.00,meteohub,2013-07-04 14:11:00,
2013-07-04 09:16:00,73.6,61.2,29.99,West,265,10.0,10.0,65,0.00,,,0.00,meteohub,2013-07-04 14:16:00,
2013-07-04 09:21:00,73.9,61.3,29.99,West,267,4.0,10.0,65,0.00,,,0.00,meteohub,2013-07-04 14:21:00,
2013-07-04 09:26:00,74.7,61.2,29.99,WSW,254,4.0,10.0,63,0.00,,,0.00,meteohub,2013-07-04 14:26:00,
2013-07-04 09:31:00,74.8,61.3,29.99,West,261,0.0,10.0,63,0.00,,,0.00,meteohub,2013-07-04 14:31:00,
2013-07-04 09:36:00,75.4,62.4,29.99,West,261,0.0,8.0,64,0.00,,,0.00,meteohub,2013-07-04 14:36:00,
2013-07-04 09:41:00,76.1,62.6,29.98,West,261,3.0,7.0,63,0.00,,,0.00,meteohub,2013-07-04 14:41:00,
2013-07-04 09:46:00,76.1,61.2,29.98,WSW,258,3.0,7.0,60,0.00,,,0.00,meteohub,2013-07-04 14:46:00,
2013-07-04 09:51:00,75.9,61.0,29.98,WNW,290,5.0,10.0,60,0.00,,,0.00,meteohub,2013-07-04 14:51:00,
2013-07-04 09:56:00,76.3,61.3,29.98,WSW,251,3.0,11.0,60,0.00,,,0.00,meteohub,2013-07-04 14:56:00,
2013-07-04 10:01:00,76.8,62.4,29.98,West,279,4.0,11.0,61,0.00,,,0.00,meteohub,2013-07-04 15:01:00,
2013-07-04 10:06:00,77.4,61.9,29.97,West,267,2.0,11.0,59,0.00,,,0.00,meteohub,2013-07-04 15:06:00,
2013-07-04 10:11:00,77.4,61.0,29.97,SW,232,8.0,9.0,57,0.00,,,0.00,meteohub,2013-07-04 15:11:00,
2013-07-04 10:16:00,77.0,61.5,29.97,SW,235,3.0,9.0,59,0.00,,,0.00,meteohub,2013-07-04 15:16:00,
2013-07-04 10:21:00,77.5,62.1,29.98,West,277,6.0,9.0,59,0.00,,,0.00,meteohub,2013-07-04 15:21:00,
2013-07-04 10:26:00,78.1,62.1,29.97,WSW,247,6.0,11.0,58,0.00,,,0.00,meteohub,2013-07-04 15:26:00,
2013-07-04 10:27:00,78.1,61.2,29.98,WSW,244,5.0,11.0,56,0.00,,,0.00,meteohub,2013-07-04 15:27:00,
2013-07-04 10:32:00,78.6,62.6,29.97,WNW,298,9.0,11.0,58,0.00,,,0.00,meteohub,2013-07-04 15:32:00,
2013-07-04 10:37:00,79.0,61.9,29.97,WSW,249,11.0,12.0,56,0.00,,,0.00,meteohub,2013-07-04 15:37:00,
2013-07-04 10:42:00,79.3,62.8,29.97,WNW,286,9.0,12.0,57,0.00,,,0.00,meteohub,2013-07-04 15:42:00,
2013-07-04 10:47:00,80.1,63.0,29.97,WSW,246,3.0,13.0,56,0.00,,,0.00,meteohub,2013-07-04 15:47:00,
2013-07-04 10:52:00,80.2,63.1,29.97,West,261,4.0,13.0,56,0.00,,,0.00,meteohub,2013-07-04 15:52:00,
2013-07-04 10:57:00,80.2,63.7,29.97,WSW,249,1.0,13.0,57,0.00,,,0.00,meteohub,2013-07-04 15:57:00,
2013-07-04 11:02:00,80.8,63.7,29.97,West,263,2.0,10.0,56,0.00,,,0.00,meteohub,2013-07-04 16:02:00,
2013-07-04 11:07:00,81.1,63.5,29.97,West,263,4.0,10.0,55,0.00,,,0.00,meteohub,2013-07-04 16:07:00,
2013-07-04 11:12:00,81.5,63.3,29.97,WNW,292,5.0,9.0,54,0.00,,,0.00,meteohub,2013-07-04 16:12:00,
2013-07-04 11:17:00,81.5,62.8,29.97,WNW,292,6.0,11.0,53,0.00,,,0.00,meteohub,2013-07-04 16:17:00,
2013-07-04 11:22:00,81.9,62.4,29.97,WSW,249,10.0,11.0,52,0.00,,,0.00,meteohub,2013-07-04 16:22:00,
2013-07-04 11:27:00,81.5,62.8,29.96,West,269,3.0,13.0,53,0.00,,,0.00,meteohub,2013-07-04 16:27:00,
2013-07-04 11:32:00,81.5,63.3,29.96,WNW,288,10.0,13.0,54,0.00,,,0.00,meteohub,2013-07-04 16:32:00,
2013-07-04 11:37:00,81.7,63.5,29.96,WSW,253,6.0,14.0,54,0.00,,,0.00,meteohub,2013-07-04 16:37:00,
2013-07-04 11:42:00,82.0,63.1,29.96,West,271,9.0,14.0,53,0.00,,,0.00,meteohub,2013-07-04 16:42:00,
2013-07-04 11:47:00,82.6,63.1,29.96,West,273,6.0,14.0,52,0.00,,,0.00,meteohub,2013-07-04 16:47:00,
2013-07-04 11:52:00,83.1,62.6,29.96,West,277,5.0,12.0,50,0.00,,,0.00,meteohub,2013-07-04 16:52:00,
2013-07-04 11:57:00,83.1,62.6,29.96,WSW,253,4.0,12.0,50,0.00,,,0.00,meteohub,2013-07-04 16:57:00,
2013-07-04 12:02:00,83.1,62.1,29.96,WNW,288,4.0,14.0,49,0.00,,,0.00,meteohub,2013-07-04 17:02:00,
2013-07-04 12:07:00,83.5,62.2,29.96,SW,229,8.0,14.0,49,0.00,,,0.00,meteohub,2013-07-04 17:07:00,
2013-07-04 12:12:00,83.8,62.6,29.96,WNW,290,3.0,14.0,49,0.00,,,0.00,meteohub,2013-07-04 17:12:00,
2013-07-04 12:17:00,84.6,63.9,29.96,NW,309,5.0,13.0,50,0.00,,,0.00,meteohub,2013-07-04 17:17:00,
2013-07-04 12:22:00,84.6,60.8,29.96,West,277,6.0,13.0,45,0.00,,,0.00,meteohub,2013-07-04 17:22:00,
2013-07-04 12:27:00,84.0,61.0,29.95,SW,221,7.0,18.0,46,0.00,,,0.00,meteohub,2013-07-04 17:27:00,
2013-07-04 12:32:00,83.7,61.3,29.95,WSW,246,5.0,18.0,47,0.00,,,0.00,meteohub,2013-07-04 17:32:00,
2013-07-04 12:37:00,84.2,62.4,29.95,WSW,252,4.0,15.0,48,0.00,,,0.00,meteohub,2013-07-04 17:37:00,
2013-07-04 12:42:00,84.7,62.2,29.95,WSW,238,6.0,14.0,47,0.00,,,0.00,meteohub,2013-07-04 17:42:00,
2013-07-04 12:47:00,85.1,60.8,29.95,NW,310,13.0,14.0,44,0.00,,,0.00,meteohub,2013-07-04 17:47:00,
2013-07-04 12:52:00,85.3,61.5,29.95,West,277,5.0,14.0,45,0.00,,,0.00,meteohub,2013-07-04 17:52:00,
2013-07-04 12:57:00,85.6,61.9,29.95,SSW,209,7.0,16.0,45,0.00,,,0.00,meteohub,2013-07-04 17:57:00,
2013-07-04 13:02:00,86.0,61.0,29.95,WNW,289,11.0,16.0,43,0.00,,,0.00,meteohub,2013-07-04 18:02:00,
2013-07-04 13:07:00,85.8,61.3,29.94,WNW,286,5.0,14.0,44,0.00,,,0.00,meteohub,2013-07-04 18:07:00,
2013-07-04 13:12:00,86.7,61.5,29.94,West,275,6.0,16.0,43,0.00,,,0.00,meteohub,2013-07-04 18:12:00,
2013-07-04 13:17:00,86.7,60.3,29.94,WNW,290,4.0,16.0,41,0.00,,,0.00,meteohub,2013-07-04 18:17:00,
2013-07-04 13:22:00,86.5,60.8,29.94,WNW,296,12.0,18.0,42,0.00,,,0.00,meteohub,2013-07-04 18:22:00,
2013-07-04 13:27:00,86.7,60.3,29.94,WNW,284,8.0,18.0,41,0.00,,,0.00,meteohub,2013-07-04 18:27:00,
2013-07-04 13:32:00,86.4,59.9,29.94,WSW,239,13.0,16.0,41,0.00,,,0.00,meteohub,2013-07-04 18:32:00,
2013-07-04 13:37:00,86.2,59.7,29.93,WSW,251,6.0,16.0,41,0.00,,,0.00,meteohub,2013-07-04 18:37:00,
2013-07-04 13:42:00,86.5,60.1,29.93,West,261,5.0,16.0,41,0.00,,,0.00,meteohub,2013-07-04 18:42:00,
2013-07-04 13:47:00,86.7,58.8,29.93,WNW,295,9.0,16.0,39,0.00,,,0.00,meteohub,2013-07-04 18:47:00,
2013-07-04 13:52:00,86.5,59.4,29.93,West,262,3.0,15.0,40,0.00,,,0.00,meteohub,2013-07-04 18:52:00,
2013-07-04 13:57:00,86.5,58.6,29.93,West,278,6.0,17.0,39,0.00,,,0.00,meteohub,2013-07-04 18:57:00,
2013-07-04 14:02:00,87.1,59.2,29.93,WSW,242,14.0,17.0,39,0.00,,,0.00,meteohub,2013-07-04 19:02:00,
2013-07-04 14:07:00,86.7,58.8,29.93,West,260,6.0,18.0,39,0.00,,,0.00,meteohub,2013-07-04 19:07:00,
2013-07-04 14:12:00,86.7,59.5,29.93,WSW,249,6.0,18.0,40,0.00,,,0.00,meteohub,2013-07-04 19:12:00,
2013-07-04 14:17:00,86.7,57.4,29.92,WNW,288,6.0,18.0,37,0.00,,,0.00,meteohub,2013-07-04 19:17:00,
2013-07-04 14:22:00,87.1,57.6,29.92,West,264,4.0,15.0,37,0.00,,,0.00,meteohub,2013-07-04 19:22:00,
2013-07-04 14:27:00,87.3,57.0,29.92,WSW,242,4.0,18.0,36,0.00,,,0.00,meteohub,2013-07-04 19:27:00,
2013-07-04 14:32:00,87.3,58.6,29.92,WSW,254,9.0,18.0,38,0.00,,,0.00,meteohub,2013-07-04 19:32:00,
2013-07-04 14:37:00,87.3,56.3,29.92,WNW,286,10.0,18.0,35,0.00,,,0.00,meteohub,2013-07-04 19:37:00,
2013-07-04 14:42:00,87.4,57.9,29.92,West,271,11.0,18.0,37,0.00,,,0.00,meteohub,2013-07-04 19:42:00,
2013-07-04 14:47:00,87.4,57.2,29.92,West,277,5.0,20.0,36,0.00,,,0.00,meteohub,2013-07-04 19:47:00,
2013-07-04 14:52:00,87.4,57.2,29.91,West,267,9.0,20.0,36,0.00,,,0.00,meteohub,2013-07-04 19:52:00,
2013-07-04 14:57:00,87.4,57.9,29.91,West,265,10.0,20.0,37,0.00,,,0.00,meteohub,2013-07-04 19:57:00,
2013-07-04 15:02:00,87.4,56.5,29.92,WNW,284,15.0,20.0,35,0.00,,,0.00,meteohub,2013-07-04 20:02:00,
2013-07-04 15:07:00,87.6,55.8,29.92,WNW,296,12.0,20.0,34,0.00,,,0.00,meteohub,2013-07-04 20:07:00,
2013-07-04 15:12:00,88.0,56.8,29.92,WSW,244,11.0,20.0,35,0.00,,,0.00,meteohub,2013-07-04 20:12:00,
2013-07-04 15:13:00,88.0,56.8,29.92,West,267,10.0,20.0,35,0.00,,,0.00,meteohub,2013-07-04 20:13:00,
2013-07-04 15:18:00,88.0,58.5,29.91,West,262,10.0,20.0,37,0.00,,,0.00,meteohub,2013-07-04 20:18:00,
2013-07-04 15:23:00,88.2,58.6,29.91,NNW,328,13.0,20.0,37,0.00,,,0.00,meteohub,2013-07-04 20:23:00,
2013-07-04 15:28:00,88.5,55.8,29.91,West,281,17.0,17.0,33,0.00,,,0.00,meteohub,2013-07-04 20:28:00,
2013-07-04 15:33:00,88.2,57.0,29.91,WSW,256,10.0,17.0,35,0.00,,,0.00,meteohub,2013-07-04 20:33:00,
2013-07-04 15:38:00,88.2,57.9,29.91,WNW,296,5.0,18.0,36,0.00,,,0.00,meteohub,2013-07-04 20:38:00,
2013-07-04 15:43:00,88.3,57.9,29.91,WSW,240,6.0,18.0,36,0.00,,,0.00,meteohub,2013-07-04 20:43:00,
2013-07-04 15:48:00,88.5,57.4,29.91,West,264,16.0,17.0,35,0.00,,,0.00,meteohub,2013-07-04 20:48:00,
2013-07-04 15:53:00,88.3,57.9,29.91,WSW,248,11.0,19.0,36,0.00,,,0.00,meteohub,2013-07-04 20:53:00,
2013-07-04 15:58:00,88.2,57.9,29.91,West,275,11.0,19.0,36,0.00,,,0.00,meteohub,2013-07-04 20:58:00,
2013-07-04 16:03:00,88.2,57.9,29.91,West,260,5.0,19.0,36,0.00,,,0.00,meteohub,2013-07-04 21:03:00,
2013-07-04 16:08:00,88.3,57.2,29.91,WSW,242,7.0,18.0,35,0.00,,,0.00,meteohub,2013-07-04 21:08:00,
2013-07-04 16:13:00,88.2,57.9,29.91,WNW,289,11.0,18.0,36,0.00,,,0.00,meteohub,2013-07-04 21:13:00,
2013-07-04 16:18:00,88.0,57.7,29.91,WSW,249,13.0,17.0,36,0.00,,,0.00,meteohub,2013-07-04 21:18:00,
2013-07-04 16:23:00,87.6,58.1,29.91,WSW,241,5.0,17.0,37,0.00,,,0.00,meteohub,2013-07-04 21:23:00,
2013-07-04 16:28:00,88.2,57.9,29.91,WSW,241,13.0,17.0,36,0.00,,,0.00,meteohub,2013-07-04 21:28:00,
2013-07-04 16:33:00,88.2,57.0,29.91,West,269,7.0,17.0,35,0.00,,,0.00,meteohub,2013-07-04 21:33:00,
2013-07-04 16:38:00,88.2,58.6,29.91,WNW,287,5.0,15.0,37,0.00,,,0.00,meteohub,2013-07-04 21:38:00,
2013-07-04 16:43:00,88.0,57.7,29.91,West,275,8.0,15.0,36,0.00,,,0.00,meteohub,2013-07-04 21:43:00,
2013-07-04 16:48:00,87.8,57.6,29.91,West,262,9.0,15.0,36,0.00,,,0.00,meteohub,2013-07-04 21:48:00,
2013-07-04 16:53:00,87.8,58.3,29.91,WNW,298,11.0,15.0,37,0.00,,,0.00,meteohub,2013-07-04 21:53:00,
2013-07-04 16:58:00,88.0,56.8,29.91,West,277,11.0,15.0,35,0.00,,,0.00,meteohub,2013-07-04 21:58:00,
2013-07-04 17:03:00,88.2,58.6,29.90,West,275,6.0,16.0,37,0.00,,,0.00,meteohub,2013-07-04 22:03:00,
2013-07-04 17:08:00,88.2,58.6,29.90,WSW,240,3.0,16.0,37,0.00,,,0.00,meteohub,2013-07-04 22:08:00,
2013-07-04 17:13:00,88.0,57.7,29.90,WNW,287,3.0,16.0,36,0.00,,,0.00,meteohub,2013-07-04 22:13:00,
2013-07-04 17:18:00,88.2,57.0,29.90,West,273,6.0,16.0,35,0.00,,,0.00,meteohub,2013-07-04 22:18:00,
2013-07-04 17:23:00,88.2,57.9,29.90,WNW,284,14.0,16.0,36,0.00,,,0.00,meteohub,2013-07-04 22:23:00,
2013-07-04 17:28:00,88.0,57.7,29.90,WNW,294,7.0,16.0,36,0.00,,,0.00,meteohub,2013-07-04 22:28:00,
2013-07-04 17:33:00,87.6,57.4,29.90,WNW,298,10.0,16.0,36,0.00,,,0.00,meteohub,2013-07-04 22:33:00,
2013-07-04 17:38:00,87.6,58.1,29.90,SW,232,2.0,16.0,37,0.00,,,0.00,meteohub,2013-07-04 22:38:00,
2013-07-04 17:43:00,87.6,57.4,29.89,SW,223,4.0,15.0,36,0.00,,,0.00,meteohub,2013-07-04 22:43:00,
2013-07-04 17:48:00,87.8,57.6,29.89,SW,232,8.0,12.0,36,0.00,,,0.00,meteohub,2013-07-04 22:48:00,
2013-07-04 17:53:00,87.6,57.4,29.89,West,279,14.0,14.0,36,0.00,,,0.00,meteohub,2013-07-04 22:53:00,
2013-07-04 17:58:00,87.4,57.9,29.89,West,266,3.0,14.0,37,0.00,,,0.00,meteohub,2013-07-04 22:58:00,
2013-07-04 18:03:00,86.7,56.7,29.89,West,275,6.0,14.0,36,0.00,,,0.00,meteohub,2013-07-04 23:03:00,
2013-07-04 18:08:00,86.5,56.5,29.89,WNW,293,9.0,15.0,36,0.00,,,0.00,meteohub,2013-07-04 23:08:00,
2013-07-04 18:13:00,86.7,57.4,29.89,West,269,6.0,16.0,37,0.00,,,0.00,meteohub,2013-07-04 23:13:00,
2013-07-04 18:18:00,86.7,57.4,29.89,WNW,282,3.0,16.0,37,0.00,,,0.00,meteohub,2013-07-04 23:18:00,
2013-07-04 18:23:00,86.2,57.6,29.89,West,274,6.0,16.0,38,0.00,,,0.00,meteohub,2013-07-04 23:23:00,
2013-07-04 18:28:00,85.8,56.5,29.89,WSW,256,7.0,13.0,37,0.00,,,0.00,meteohub,2013-07-04 23:28:00,
2013-07-04 18:33:00,85.5,57.7,29.89,West,269,4.0,13.0,39,0.00,,,0.00,meteohub,2013-07-04 23:33:00,
2013-07-04 18:38:00,85.6,58.5,29.89,West,279,6.0,13.0,40,0.00,,,0.00,meteohub,2013-07-04 23:38:00,
2013-07-04 18:43:00,85.8,58.6,29.89,West,269,2.0,11.0,40,0.00,,,0.00,meteohub,2013-07-04 23:43:00,
2013-07-04 18:48:00,86.0,59.5,29.89,WSW,244,8.0,11.0,41,0.00,,,0.00,meteohub,2013-07-04 23:48:00,
2013-07-04 18:53:00,86.0,58.8,29.89,West,259,3.0,11.0,40,0.00,,,0.00,meteohub,2013-07-04 23:53:00,
2013-07-04 18:58:00,85.8,58.6,29.89,West,279,4.0,12.0,40,0.00,,,0.00,meteohub,2013-07-04 23:58:00,
2013-07-04 19:03:00,86.0,58.8,29.89,West,273,8.0,12.0,40,0.00,,,0.00,meteohub,2013-07-05 00:03:00,
2013-07-04 19:08:00,85.8,59.4,29.89,West,277,5.0,12.0,41,0.00,,,0.00,meteohub,2013-07-05 00:08:00,
2013-07-04 19:13:00,85.8,59.4,29.89,West,269,1.0,11.0,41,0.00,,,0.00,meteohub,2013-07-05 00:13:00,
2013-07-04 19:18:00,85.5,59.0,29.89,West,273,2.0,10.0,41,0.00,,,0.00,meteohub,2013-07-05 00:18:00,
2013-07-04 19:23:00,85.3,59.0,29.88,West,265,5.0,10.0,41,0.00,,,0.00,meteohub,2013-07-05 00:23:00,
2013-07-04 19:28:00,84.7,58.5,29.89,WSW,257,3.0,10.0,41,0.00,,,0.00,meteohub,2013-07-05 00:28:00,
2013-07-04 19:33:00,84.4,58.8,29.89,West,260,5.0,10.0,42,0.00,,,0.00,meteohub,2013-07-05 00:33:00,
2013-07-04 19:38:00,84.0,58.5,29.89,West,263,2.0,10.0,42,0.00,,,0.00,meteohub,2013-07-05 00:38:00,
2013-07-04 19:43:00,83.7,58.1,29.89,West,262,2.0,10.0,42,0.00,,,0.00,meteohub,2013-07-05 00:43:00,
2013-07-04 19:48:00,83.5,59.4,29.89,West,262,0.0,7.0,44,0.00,,,0.00,meteohub,2013-07-05 00:48:00,
2013-07-04 19:53:00,83.1,59.5,29.89,West,262,2.0,7.0,45,0.00,,,0.00,meteohub,2013-07-05 00:53:00,
2013-07-04 19:58:00,82.9,60.1,29.89,West,261,3.0,6.0,46,0.00,,,0.00,meteohub,2013-07-05 00:58:00,
2013-07-04 20:03:00,82.6,59.0,29.89,WSW,250,4.0,5.0,45,0.00,,,0.00,meteohub,2013-07-05 01:03:00,
2013-07-04 20:08:00,82.2,58.8,29.89,WSW,254,4.0,7.0,45,0.00,,,0.00,meteohub,2013-07-05 01:08:00,
2013-07-04 20:13:00,82.0,58.6,29.88,West,260,1.0,7.0,45,0.00,,,0.00,meteohub,2013-07-05 01:13:00,
2013-07-04 20:18:00,82.0,59.2,29.88,West,270,2.0,11.0,46,0.00,,,0.00,meteohub,2013-07-05 01:18:00,
2013-07-04 20:23:00,81.7,58.8,29.89,West,269,3.0,11.0,46,0.00,,,0.00,meteohub,2013-07-05 01:23:00,
2013-07-04 20:28:00,81.5,58.6,29.89,West,261,1.0,7.0,46,0.00,,,0.00,meteohub,2013-07-05 01:28:00,
2013-07-04 20:33:00,81.1,58.5,29.89,West,260,3.0,7.0,46,0.00,,,0.00,meteohub,2013-07-05 01:33:00,
2013-07-04 20:38:00,81.1,58.5,29.89,West,261,1.0,7.0,46,0.00,,,0.00,meteohub,2013-07-05 01:38:00,
2013-07-04 20:43:00,80.8,58.6,29.89,West,260,4.0,7.0,47,0.00,,,0.00,meteohub,2013-07-05 01:43:00,
2013-07-04 20:48:00,80.4,58.3,29.89,West,260,2.0,7.0,47,0.00,,,0.00,meteohub,2013-07-05 01:48:00,
2013-07-04 20:53:00,79.9,58.5,29.89,West,261,0.0,4.0,48,0.00,,,0.00,meteohub,2013-07-05 01:53:00,
2013-07-04 20:58:00,79.3,58.5,29.89,West,261,0.0,4.0,49,0.00,,,0.00,meteohub,2013-07-05 01:58:00,
2013-07-04 21:03:00,78.6,57.9,29.89,West,261,0.0,4.0,49,0.00,,,0.00,meteohub,2013-07-05 02:03:00,
2013-07-04 21:08:00,78.4,58.3,29.89,West,260,2.0,4.0,50,0.00,,,0.00,meteohub,2013-07-05 02:08:00,
2013-07-04 21:13:00,78.3,58.1,29.89,West,261,0.0,4.0,50,0.00,,,0.00,meteohub,2013-07-05 02:13:00,
2013-07-04 21:18:00,77.7,58.1,29.89,West,261,1.0,3.0,51,0.00,,,0.00,meteohub,2013-07-05 02:18:00,
2013-07-04 21:23:00,77.4,58.3,29.89,West,260,0.0,2.0,52,0.00,,,0.00,meteohub,2013-07-05 02:23:00,
2013-07-04 21:28:00,76.8,57.9,29.89,West,260,0.0,3.0,52,0.00,,,0.00,meteohub,2013-07-05 02:28:00,
2013-07-04 21:33:00,76.5,57.6,29.90,West,260,0.0,4.0,52,0.00,,,0.00,meteohub,2013-07-05 02:33:00,
2013-07-04 21:38:00,76.3,57.9,29.90,West,261,1.0,4.0,53,0.00,,,0.00,meteohub,2013-07-05 02:38:00,
2013-07-04 21:43:00,76.1,57.7,29.90,West,260,0.0,4.0,53,0.00,,,0.00,meteohub,2013-07-05 02:43:00,
2013-07-04 21:48:00,75.9,57.6,29.90,West,261,0.0,3.0,53,0.00,,,0.00,meteohub,2013-07-05 02:48:00,
2013-07-04 21:53:00,75.7,57.4,29.90,West,261,0.0,3.0,53,0.00,,,0.00,meteohub,2013-07-05 02:53:00,
2013-07-04 21:58:00,75.6,57.2,29.90,West,260,0.0,3.0,53,0.00,,,0.00,meteohub,2013-07-05 02:58:00,
2013-07-04 22:03:00,75.4,57.6,29.91,West,261,0.0,2.0,54,0.00,,,0.00,meteohub,2013-07-05 03:03:00,
2013-07-04 22:08:00,75.0,57.2,29.91,West,261,0.0,2.0,54,0.00,,,0.00,meteohub,2013-07-05 03:08:00,
2013-07-04 22:13:00,75.0,57.2,29.91,West,260,0.0,3.0,54,0.00,,,0.00,meteohub,2013-07-05 03:13:00,
2013-07-04 22:18:00,74.7,57.4,29.91,West,261,0.0,3.0,55,0.00,,,0.00,meteohub,2013-07-05 03:18:00,
2013-07-04 22:23:00,74.7,57.4,29.91,West,261,0.0,3.0,55,0.00,,,0.00,meteohub,2013-07-05 03:23:00,
2013-07-04 22:28:00,74.7,57.4,29.91,West,260,0.0,3.0,55,0.00,,,0.00,meteohub,2013-07-05 03:28:00,
2013-07-04 22:33:00,74.5,57.2,29.91,West,261,1.0,3.0,55,0.00,,,0.00,meteohub,2013-07-05 03:33:00,
2013-07-04 22:38:00,74.1,56.8,29.91,West,261,0.0,3.0,55,0.00,,,0.00,meteohub,2013-07-05 03:38:00,
2013-07-04 22:43:00,74.1,57.4,29.91,West,261,0.0,4.0,56,0.00,,,0.00,meteohub,2013-07-05 03:43:00,
2013-07-04 22:48:00,73.8,57.0,29.92,West,261,0.0,4.0,56,0.00,,,0.00,meteohub,2013-07-05 03:48:00,
2013-07-04 22:53:00,73.6,56.8,29.92,West,260,0.0,4.0,56,0.00,,,0.00,meteohub,2013-07-05 03:53:00,
2013-07-04 22:58:00,73.6,57.4,29.91,West,260,3.0,4.0,57,0.00,,,0.00,meteohub,2013-07-05 03:58:00,
2013-07-04 23:01:00,73.6,57.4,29.91,West,260,3.0,4.0,57,0.00,,,0.00,meteohub,2013-07-05 04:01:00,
2013-07-04 23:02:00,73.6,57.4,29.91,West,260,2.0,4.0,57,0.00,,,0.00,meteohub,2013-07-05 04:02:00,
2013-07-04 23:07:00,73.4,57.2,29.91,West,261,3.0,6.0,57,0.00,,,0.00,meteohub,2013-07-05 04:07:00,
2013-07-04 23:12:00,73.2,57.0,29.92,West,260,2.0,7.0,57,0.00,,,0.00,meteohub,2013-07-05 04:12:00,
2013-07-04 23:17:00,73.2,57.0,29.92,West,260,2.0,7.0,57,0.00,,,0.00,meteohub,2013-07-05 04:17:00,
2013-07-04 23:22:00,72.9,56.7,29.92,West,261,1.0,7.0,57,0.00,,,0.00,meteohub,2013-07-05 04:22:00,
2013-07-04 23:27:00,72.7,57.0,29.92,West,261,1.0,5.0,58,0.00,,,0.00,meteohub,2013-07-05 04:27:00,
2013-07-04 23:32:00,72.7,57.0,29.92,West,261,0.0,4.0,58,0.00,,,0.00,meteohub,2013-07-05 04:32:00,
2013-07-04 23:37:00,72.5,56.8,29.92,West,260,2.0,5.0,58,0.00,,,0.00,meteohub,2013-07-05 04:37:00,
2013-07-04 23:42:00,72.3,57.2,29.92,West,261,3.0,5.0,59,0.00,,,0.00,meteohub,2013-07-05 04:42:00,
2013-07-04 23:47:00,72.0,56.8,29.92,West,260,0.0,4.0,59,0.00,,,0.00,meteohub,2013-07-05 04:47:00,
2013-07-04 23:52:00,71.8,57.2,29.92,West,260,3.0,4.0,60,0.00,,,0.00,meteohub,2013-07-05 04:52:00,
2013-07-04 23:57:00,71.4,56.8,29.92,West,261,0.0,3.0,60,0.00,,,0.00,meteohub,2013-07-05 04:57:00,